Weather History for Glenwood, MN

Change the Weather History Date:

Saturday, October 4, 2014

  Actual Average Record
Temperature  
Mean Temperature 40 °F -  
Max Temperature 46 °F 62 °F 82 °F (1987)
Min Temperature 33 °F 39 °F 24 °F (1989)
Degree Days  
Heating Degree Days 26    
Moisture  
Dew Point 28 °F    
Average Humidity 66    
Maximum Humidity 81    
Minimum Humidity 46    
Precipitation  
Precipitation 0.00 in - - ()
Sea Level Pressure  
Sea Level Pressure 29.82 in    
Wind  
Wind Speed 19 mph (WNW)    
Max Wind Speed 26 mph    
Max Gust Speed 39 mph    
Visibility 10 miles    
Events      
Averages and records for this station are not official NWS values.
T = Trace of Precipitation, MM = Missing Value Source: NWS Daily Summary

Daily Weather History Graph

Daily Weather History Graph

Search for Another Location

Airport:

Trip Planner

Search our weather history database for the weather conditions in past years. The results will help you decide how hot, cold, wet, or windy it might be!

Date:

Astronomy

Oct. 04, 2014 Rise Set
Actual Time 7:23 AM CDT 6:55 PM CDT
Civil Twilight 6:53 AM CDT 7:25 PM CDT
Nautical Twilight 6:19 AM CDT 7:59 PM CDT
Astronomical Twilight 5:44 AM CDT 8:34 PM CDT
Moon 4:44 PM CDT (10/4) 2:39 AM CDT (10/4)
Length of Visible Light 12h 31m
Length of Day
11h 32m
Waxing Gibbous, 81% of the Moon is Illuminated
Oct 4
Waxing Gibbous
Oct 8
Full
Oct 15
Last Quarter
Oct 23
New
Oct 30
First Quarter

Hourly Weather History & Observations

Time (CDT) Temp. Windchill Dew Point Humidity Pressure Visibility Wind Dir Wind Speed Gust Speed Precip Events Conditions
12:01 AM 37.4 °F 25.6 °F 26.6 °F 65% 29.87 in 10.0 mi WNW 26.5 mph 35.7 mph N/A   Mostly Cloudy
12:21 AM 37.4 °F 26.1 °F 26.6 °F 65% 29.86 in 10.0 mi WNW 24.2 mph 39.1 mph N/A   Overcast
12:41 AM 37.4 °F 26.6 °F 26.6 °F 65% 29.86 in 10.0 mi NW 21.9 mph 35.7 mph N/A   Mostly Cloudy
1:01 AM 37.4 °F 25.6 °F 26.6 °F 65% 29.86 in 10.0 mi NW 26.5 mph 34.5 mph N/A   Mostly Cloudy
1:21 AM 37.4 °F 26.6 °F 28.4 °F 70% 29.85 in 10.0 mi WNW 21.9 mph 29.9 mph N/A   Overcast
1:41 AM 37.4 °F 26.9 °F 28.4 °F 70% 29.85 in 10.0 mi WNW 20.7 mph 31.1 mph N/A   Overcast
2:01 AM 37.4 °F 26.4 °F 28.4 °F 70% 29.85 in 10.0 mi NW 23.0 mph 32.2 mph N/A   Mostly Cloudy
2:21 AM 37.4 °F 27.5 °F 28.4 °F 70% 29.84 in 10.0 mi WNW 18.4 mph 29.9 mph N/A   Mostly Cloudy
2:41 AM 37.4 °F 26.6 °F 28.4 °F 70% 29.84 in 10.0 mi WNW 21.9 mph 28.8 mph N/A   Scattered Clouds
3:01 AM 35.6 °F 25.5 °F 28.4 °F 75% 29.84 in 10.0 mi WNW 17.3 mph 23.0 mph N/A   Clear
3:21 AM 35.6 °F 25.9 °F 28.4 °F 75% 29.84 in 10.0 mi WNW 16.1 mph 21.9 mph N/A   Clear
3:41 AM 35.6 °F 25.9 °F 28.4 °F 75% 29.85 in 10.0 mi WNW 16.1 mph 19.6 mph N/A   Scattered Clouds
4:21 AM 35.6 °F 25.9 °F 28.4 °F 75% 29.85 in 10.0 mi WNW 16.1 mph - N/A   Mostly Cloudy
4:41 AM 35.6 °F 25.9 °F 28.4 °F 75% 29.85 in 10.0 mi WNW 16.1 mph - N/A   Overcast
5:01 AM 35.6 °F 25.5 °F 28.4 °F 75% 29.85 in 10.0 mi WNW 17.3 mph - N/A   Overcast
5:21 AM 35.6 °F 25.5 °F 28.4 °F 75% 29.85 in 10.0 mi WNW 17.3 mph 21.9 mph N/A   Overcast
5:41 AM 35.6 °F 26.2 °F 28.4 °F 75% 29.85 in 10.0 mi WNW 15.0 mph 21.9 mph N/A   Overcast
6:01 AM 35.6 °F 25.5 °F 28.4 °F 75% 29.85 in 10.0 mi WNW 17.3 mph - N/A   Overcast
6:21 AM 35.6 °F 25.9 °F 28.4 °F 75% 29.85 in 10.0 mi WNW 16.1 mph 23.0 mph N/A   Overcast
6:41 AM 35.6 °F 25.9 °F 28.4 °F 75% 29.85 in 10.0 mi WNW 16.1 mph 21.9 mph N/A   Overcast
7:01 AM 35.6 °F 24.8 °F 28.4 °F 75% 29.85 in 10.0 mi WNW 19.6 mph 26.5 mph N/A   Overcast
7:21 AM 35.6 °F 24.8 °F 28.4 °F 75% 29.86 in 10.0 mi WNW 19.6 mph - N/A   Overcast
7:41 AM 35.6 °F 26.2 °F 28.4 °F 75% 29.86 in 10.0 mi WNW 15.0 mph 24.2 mph N/A   Overcast
8:01 AM 33.8 °F 23.2 °F 28.4 °F 81% 29.86 in 10.0 mi WNW 17.3 mph 23.0 mph N/A   Scattered Clouds
8:21 AM 33.8 °F 23.2 °F 28.4 °F 81% 29.86 in 10.0 mi WNW 17.3 mph 21.9 mph N/A   Clear
8:41 AM 35.6 °F 25.5 °F 28.4 °F 75% 29.86 in 10.0 mi WNW 17.3 mph - N/A   Clear
9:01 AM 35.6 °F 24.8 °F 28.4 °F 75% 29.86 in 10.0 mi WNW 19.6 mph 25.3 mph N/A   Scattered Clouds
9:21 AM 35.6 °F 25.9 °F 28.4 °F 75% 29.86 in 10.0 mi WNW 16.1 mph 24.2 mph N/A   Mostly Cloudy
9:41 AM 37.4 °F 27.5 °F 28.4 °F 70% 29.87 in 10.0 mi NW 18.4 mph 28.8 mph N/A   Scattered Clouds
10:01 AM 37.4 °F 28.2 °F 30.2 °F 75% 29.87 in 10.0 mi NW 16.1 mph 23.0 mph N/A   Scattered Clouds
10:21 AM 39.2 °F 29.6 °F 30.2 °F 70% 29.87 in 10.0 mi WNW 19.6 mph 23.0 mph N/A   Scattered Clouds
10:41 AM 39.2 °F 30.5 °F 30.2 °F 70% 29.87 in 10.0 mi WNW 16.1 mph 23.0 mph N/A   Scattered Clouds
11:01 AM 41.0 °F 32.8 °F 30.2 °F 65% 29.86 in 10.0 mi NW 16.1 mph 25.3 mph N/A   Scattered Clouds
11:21 AM 42.8 °F 35.1 °F 30.2 °F 61% 29.86 in 10.0 mi NW 16.1 mph 25.3 mph N/A   Scattered Clouds
11:41 AM 42.8 °F 34.0 °F 30.2 °F 61% 29.86 in 10.0 mi WNW 20.7 mph 27.6 mph N/A   Scattered Clouds
12:01 PM 42.8 °F 34.3 °F 28.4 °F 57% 29.85 in 10.0 mi WNW 19.6 mph 27.6 mph N/A   Scattered Clouds
12:21 PM 44.6 °F 35.9 °F 30.2 °F 57% 29.85 in 10.0 mi WNW 23.0 mph 29.9 mph N/A   Scattered Clouds
12:41 PM 42.8 °F 33.5 °F 28.4 °F 57% 29.85 in 10.0 mi WNW 23.0 mph 31.1 mph N/A   Scattered Clouds
1:01 PM 44.6 °F 35.9 °F 28.4 °F 53% 29.84 in 10.0 mi WNW 23.0 mph 28.8 mph N/A   Scattered Clouds
1:21 PM 44.6 °F 36.1 °F 28.4 °F 53% 29.84 in 10.0 mi WNW 21.9 mph 27.6 mph N/A   Scattered Clouds
1:41 PM 44.6 °F 36.6 °F 28.4 °F 53% 29.83 in 10.0 mi NW 19.6 mph 29.9 mph N/A   Scattered Clouds
2:01 PM 44.6 °F 36.1 °F 26.6 °F 49% - 10.0 mi WNW 21.9 mph 29.9 mph N/A   Mostly Cloudy
2:21 PM 44.6 °F 36.4 °F 26.6 °F 49% 29.81 in 10.0 mi WNW 20.7 mph - N/A   Scattered Clouds
2:41 PM 44.6 °F 36.1 °F 26.6 °F 49% 29.81 in 10.0 mi WNW 21.9 mph 29.9 mph N/A   Scattered Clouds
3:01 PM 46.4 °F 39.0 °F 28.4 °F 50% 29.81 in 10.0 mi WNW 19.6 mph 27.6 mph N/A   Scattered Clouds
3:21 PM 44.6 °F 36.9 °F 26.6 °F 49% 29.80 in 10.0 mi WNW 18.4 mph 25.3 mph N/A   Scattered Clouds
3:41 PM 42.8 °F 34.5 °F 26.6 °F 53% 29.80 in 10.0 mi WNW 18.4 mph 24.2 mph N/A   Scattered Clouds
4:01 PM 44.6 °F 37.2 °F 24.8 °F 46% 29.80 in 10.0 mi West 17.3 mph 26.5 mph N/A   Clear
4:21 PM 46.4 °F 44.3 °F 26.6 °F 46% 29.79 in 10.0 mi West 4.6 mph 24.2 mph N/A   Scattered Clouds
4:41 PM 44.6 °F 36.6 °F 24.8 °F 46% 29.79 in 10.0 mi NW 19.6 mph 24.2 mph N/A   Scattered Clouds
5:01 PM 46.4 °F 40.1 °F 26.6 °F 46% 29.78 in 10.0 mi West 15.0 mph 21.9 mph N/A   Clear
5:21 PM 44.6 °F 37.4 °F 26.6 °F 49% 29.78 in 10.0 mi West 16.1 mph 25.3 mph N/A   Clear
5:41 PM 44.6 °F 36.9 °F 24.8 °F 46% 29.78 in 10.0 mi West 18.4 mph 23.0 mph N/A   Scattered Clouds
6:01 PM 42.8 °F 35.4 °F 26.6 °F 53% 29.77 in 10.0 mi West 15.0 mph 19.6 mph N/A   Clear
6:21 PM 41.0 °F 33.9 °F 26.6 °F 57% 29.78 in 10.0 mi West 12.7 mph - N/A   Clear
6:41 PM 39.2 °F 31.6 °F 26.6 °F 61% 29.77 in 10.0 mi West 12.7 mph - N/A   Clear
7:01 PM 39.2 °F 33.6 °F 26.6 °F 61% 29.77 in 10.0 mi West 8.1 mph - N/A   Clear
7:21 PM 37.4 °F 32.1 °F 26.6 °F 65% 29.76 in 10.0 mi West 6.9 mph - N/A   Clear
7:41 PM 37.4 °F 32.1 °F 26.6 °F 65% 29.76 in 10.0 mi West 6.9 mph - N/A   Clear
8:21 PM 35.6 °F 29.9 °F 26.6 °F 70% 29.75 in 10.0 mi West 6.9 mph - N/A   Clear
8:41 PM 35.6 °F 29.2 °F 26.6 °F 70% 29.74 in 10.0 mi West 8.1 mph - N/A   Clear
9:01 PM 35.6 °F 29.2 °F 26.6 °F 70% 29.74 in 10.0 mi West 8.1 mph - N/A   Clear
9:21 PM 35.6 °F 29.2 °F 26.6 °F 70% 29.74 in 10.0 mi West 8.1 mph - N/A   Clear
9:41 PM 35.6 °F 30.7 °F 26.6 °F 70% 29.73 in 10.0 mi West 5.8 mph - N/A   Clear
10:01 PM 33.8 °F 27.7 °F 26.6 °F 75% 29.72 in 10.0 mi West 6.9 mph - N/A   Clear
10:21 PM 33.8 °F 27.7 °F 26.6 °F 75% 29.72 in 10.0 mi West 6.9 mph - N/A   Clear
10:41 PM 33.8 °F 27.7 °F 28.4 °F 81% 29.71 in 10.0 mi West 6.9 mph - N/A   Clear
11:01 PM 33.8 °F 27.7 °F 26.6 °F 75% 29.71 in 10.0 mi West 6.9 mph - N/A   Clear
11:21 PM 33.8 °F 27.7 °F 28.4 °F 81% 29.70 in 10.0 mi West 6.9 mph - N/A   Clear
11:41 PM 33.8 °F 27.7 °F 28.4 °F 81% 29.70 in 10.0 mi West 6.9 mph - N/A   Clear